ONEWEB-0693, 61601

Orbit data source: Space-Track

ONEWEB-0693, 61601 is a payload satellite owned by Eut. One Web (UK) in LEO that was launched on Sun, 20 Oct 2024 UTC via an FALCON 9 launch vehicle from the Air Force Western Test Range (AFWTR). Payload-class satellites include a variety of spacecraft equipped with specific instruments for various scientific and technological missions. These include communications satellites like Starlink; space stations such as the ISS; scientific satellites like the Hubble; Earth observation satellites from companies like Planet Labs, Umbra, and HawkEye 360; GPS; miniature CubeSats for education and research; and military/defense satellites.

Loading next visibility...
Identifier
61601, 2024-188H
Orbit
LEO
Last TLE update
13 hours ago
Origin
Manufacturer
One Web
Mission
Operational Commercial Communications
Bus & Motor
ARROW, Unknown motor
Mass
148 kg wet, ~140 kg dry
Launch date (UTC)
2024-10-20 (8 months ago)
Launch vehicle
FALCON 9
Launch site
Air Force Western Test Range (AFWTR)
Object type
Payload
Rocket body
Debris
Shape & HBR
Trap Box + 2 Pan, 5 m
Radar Cross Section
2.032 m², Medium (>0.1 m² and < 1m²)

Expand to show TLE details & history

TLE from 13 hours ago
0 ONEWEB-0693
1 61601U 24188H   25181.84009940  .00000049  00000-0  94314-4 0  9996
2 61601  87.9031  75.8864 0003022 100.4067 259.7405 13.17510847 39615
Epoch: 2025-06-30T20:09Z
TLE epoch observation values (Epoch: 2025-06-30T20:09:44.588Z)
Latitude
-0.00002°
Longitude
-145.69352°
Altitude
1,197.549 km
Speed
7.255 km/s
True Right ascension
05h 03m 32s
True Declination
0° 00' 00"
Sunlit
Object was in daylight at epoch
Visualization orbit readout
Latitude
-38.59051°
Longitude
-147.46392°
Altitude
1,210.637 km
Speed
7.247 km/s
Apparent Right ascension
06h 28m 32s
Apparent Declination
-41° 55' 47"
Sunlit
Object is in daylight
Visualization observer readout
Local Sidereal Time
20:21:44
Azimuth
104.648° ESE
Elevation
-68.622°
Doppler factor
1
Orbital elements
Apogee altitude
1,193.639 km
Perigee altitude
1,189.064 km
Semi-major axis
7,569.489 km
Eccentricity
0.0003
Inclination
87.9031°
RAAN
75.8864°
Arg. of periapsis
100.4067°
True anomaly
Unknown
Mean anomaly
259.7405°
Eccentric anomaly
Unknown
Mean motion
3.29567 °/min
Orbital period
109.23 mins
BSTAR
0.000094314
Loading maneuver chart data...
Loading SW <> Apogee altitude chart data...
Loading historical data...
Loading historical data...
Loading historical data...
Loading historical data...
Loading historical data...
Loading historical data...
Loading historical data...

ONEWEB-0693 Visibility forecast

Observer location: undefined°, undefined°

Span
Click to sort rows by Start time (UTC) header in descending order
Start Az.
Max El. time (UTC)
Max El. Az.
Max El.
End time (UTC)
End Az.
11 mins2025-07-01 16:19:34.001Z135.336° SSE2025-07-01 16:25:34.001Z73.077° E27.633°2025-07-01 16:30:34.001Z23.64° NE
12 mins2025-07-01 18:08:34.001Z209.126° SW2025-07-01 18:14:34.001Z282.687° WNW35.192°2025-07-01 18:20:34.001Z346.262° N
9 mins2025-07-02 03:46:34.001Z34.015° NE2025-07-02 03:50:34.001Z73.877° E21.984°2025-07-02 03:55:34.001Z123.085° SE
12 mins2025-07-02 05:35:34.001Z347.389° N2025-07-02 05:40:34.001Z277.302° WNW40.798°2025-07-02 05:47:34.001Z197.852° SSW
|